Other Public Products
Issued by NWS Charleston, SC

Current Version | Previous Version | Graphics & Text | Print | Product List | Glossary On
Versions: 1 2 3 4 5 6 7 8 9 10 11 12 13 14 15 16 17 18 19 20 21 22 23 24 25 26 27 28 29 30 31 32 33 34 35 36 37 38 39 40 41 42 43 44 45 46 47 48 49 50
498
FPUS82 KCHS 230712
OPUCHS

TEST...KCHS/KSAV Gateway Observations...TEST
National Weather Service Charleston SC
300 AM EDT FRI JUN 23 2017

NOTE: "fair" indicates few or no clouds below 12,000 feet with no
significant weather and/or obstructions to visibility.

SCZ050-WAZ558-NCZ071-TXZ119-213-PAZ071-DCZ001-FLZ074-172-MI076-
NYZ176-178-MAZ016-IL014-TNZ027-NJZ106-GAZ044-MD014-230800-

...Gateway Observations for Charleston International...

CITY           SKY/WX    TMP DP  RH WIND       PRES   REMARKS
Chas Airport   CLOUDY    78  75  90 S9        30.04F
Seattle        CLEAR     64  44  48 NE9       30.23F
Charlotte      RAIN      75  72  90 S8        30.04F
Dallas DFW     MOCLDY    80  74  81 S8        29.71S
Dallas Love    CLOUDY    82  72  71 S3        29.72S
Philladelphia  CLOUDY    78  72  81 SW5       29.87F
Wash National  CLOUDY    79  72  79 SW10      29.90F
Baltimore      CLOUDY    76  73  91 SW6       29.87F
Miami          PTCLDY    83  73  72 E10       30.02F
Detroit        MOCLDY    73  68  84 S10       29.73F
Newark         CLOUDY    79  70  74 SW9       29.85F
Laguardia      CLOUDY    81  71  71 SW7       29.84F
J F K          CLOUDY    73  71  93 S6        29.86F
Boston Logan   MOCLDY    66  59  78 SE6       29.83F
Ft. Lauderdale PTCLDY    82  74  76 SE10      30.02F
Chicago O`Hare CLOUDY    76  70  82 SW9       29.66F
Chicago Midway CLOUDY    76  71  85 S13       29.65F
Houston Bush   MOCLDY    81  76  84 S7        29.76R
Houston Hobby  MOCLDY    81  77  88 S9        29.75S
Nashville      CLOUDY    77  73  87 S7        29.87F
Atlanta        MOCLDY    74  71  91 S7        30.03F

$$

GAZ044-118-TXZ119-213-NCZ071-DCZ001-MDZ014-506-PAZ021-071-NJZ106-
NYZ176-178-MAZ106-OHZ011-021-055-MIZ076-KYZ091-ILZ014-INZ047-
MNZ060-ONZ431-230800-

...Gateway Observations for Savannah International...

CITY           SKY/WX    TMP DP  RH WIND       PRES   REMARKS
Savannah Arpt  PTCLDY    79  74  84 S8        30.05F
Atlanta        MOCLDY    74  71  91 S7        30.03F
Charlotte      RAIN      75  72  90 S8        30.04F
Dallas DFW     MOCLDY    80  74  81 S8        29.71S
Houston Bush   MOCLDY    81  76  84 S7        29.76R
Wash National  CLOUDY    79  72  79 SW10      29.90F
Wash Dulles    CLOUDY    75  70  84 S7        29.89F
Baltimore      CLOUDY    76  73  91 SW6       29.87F
Philadelphia   CLOUDY    78  72  81 SW5       29.87F
Newark         CLOUDY    79  70  74 SW9       29.85F
Laguardia      CLOUDY    81  71  71 SW7       29.84F
J F K          CLOUDY    73  71  93 S6        29.86F
Boston         MOCLDY    66  59  78 SE6       29.83F
Pittsburg      CLOUDY    73  67  81 SW13G20   29.87F
Akron          MOCLDY    72  65  78 S13       29.83F
Cleveland      MOCLDY    75  66  73 S15G21    29.80F
Cincinnati     CLOUDY    72  71  97 S13       29.82F
Columbus       HVY RAIN  69  69 100 S9        29.82F
Detroit        MOCLDY    73  68  84 S10       29.73F
Chicago O`Hare CLOUDY    76  70  82 SW9       29.66F
Minneapolis    CLEAR     61  57  87 CALM      29.74F
Indianapolis   CLOUDY    73  71  93 S9        29.76F
Toronto Canada TSTM      70  66  88 NW7       29.71F

$$




USA.gov is the U.S. government's official web portal to all federal, state and local government web resources and services.